Location: Bush Observatory
(40.2653°N, 94.3194°W)
Time: 01:05:04
(UTC-05:00)

Iridium 13 - Visible Passes

Search period start: 21 September 2014 00:00
Search period end: 01 October 2014 00:00
Orbit: 776 x 779 km, 86.4° (Epoch: 20 September)

Date Brightness Start Highest point End Pass type
(mag) Time Alt. Az. Time Alt. Az. Time Alt. Az.
21 Sep 5.7 04:29:14 69° ENE 04:29:14 69° ENE 04:34:18 10° N visible
21 Sep 7.2 06:09:45 13° W 06:10:22 13° WNW 06:12:47 10° NW visible
22 Sep 6.9 03:56:22 36° ENE 03:56:22 36° ENE 04:00:28 10° NNE visible
22 Sep 6.6 05:36:52 24° WNW 05:36:52 24° WNW 05:40:42 10° NNW visible
23 Sep 7.8 03:23:27 19° ENE 03:23:27 19° ENE 03:26:12 10° NE visible
23 Sep 6.2 05:03:57 38° NW 05:03:57 38° NW 05:07:45 10° N visible
24 Sep 6.4 04:31:00 42° N 04:31:00 42° N 04:34:25 10° N visible
25 Sep 7.1 03:58:01 31° NNE 03:58:01 31° NNE 04:00:47 10° NNE visible
25 Sep 7.3 05:38:31 15° NW 05:38:31 15° NW 05:40:06 10° NW visible
26 Sep 7.9 03:25:00 19° NE 03:25:00 19° NE 03:26:48 10° NNE visible
26 Sep 7.1 05:05:30 21° NW 05:05:30 21° NW 05:07:33 10° NNW visible
27 Sep 8.5 02:51:57 11° NE 02:51:57 11° NE 02:52:14 10° NE visible
27 Sep 7.2 04:32:27 23° NNW 04:32:27 23° NNW 04:34:26 10° N visible
28 Sep 7.6 03:59:22 20° N 03:59:22 20° N 04:00:59 10° N visible
29 Sep 8.1 03:26:17 15° NNE 03:26:17 15° NNE 03:27:13 10° NNE visible
29 Sep 7.8 05:06:46 12° NNW 05:06:46 12° NNW 05:07:09 10° NNW visible
30 Sep 7.8 04:33:39 13° NNW 04:33:39 13° NNW 04:34:19 10° NNW visible
